Year,Month,Day,Hour,Minute,Value (Times are PST for barometer in hPa)
2024,02,26,00,00,979.24
2024,02,26,00,01,979.42
2024,02,26,00,02,982.66
2024,02,26,00,03,982.66
2024,02,26,00,04,982.66
2024,02,26,00,05,982.66
2024,02,26,00,06,982.66
2024,02,26,00,07,982.49
2024,02,26,00,08,979.24
2024,02,26,00,09,979.24
2024,02,26,00,10,979.24
2024,02,26,00,11,979.24
2024,02,26,00,12,979.24
2024,02,26,00,13,979.54
2024,02,26,00,14,984.90
2024,02,26,00,15,984.90
2024,02,26,00,16,984.90
2024,02,26,00,17,984.60
2024,02,26,00,18,981.95
2024,02,26,00,19,981.95
2024,02,26,00,20,981.95
2024,02,26,00,21,981.95
2024,02,26,00,22,981.95
2024,02,26,00,23,981.95
2024,02,26,00,24,981.95
2024,02,26,00,25,982.05
2024,02,26,00,26,984.03
2024,02,26,00,27,984.19
2024,02,26,00,28,984.19
2024,02,26,00,29,984.19
2024,02,26,00,30,984.19
2024,02,26,00,31,984.19
2024,02,26,00,32,984.19
2024,02,26,00,33,984.23
2024,02,26,00,34,984.59
2024,02,26,00,35,984.59
2024,02,26,00,36,984.59
2024,02,26,00,37,984.59
2024,02,26,00,38,984.59
2024,02,26,00,39,984.59
2024,02,26,00,40,984.59
2024,02,26,00,41,984.59
2024,02,26,00,42,984.59
2024,02,26,00,43,984.70
2024,02,26,00,44,986.86
2024,02,26,00,45,986.86
2024,02,26,00,46,986.86
2024,02,26,00,47,986.74
2024,02,26,00,48,984.42
2024,02,26,00,49,984.34
2024,02,26,00,50,982.88
2024,02,26,00,51,983.07
2024,02,26,00,52,983.07
2024,02,26,00,53,982.95
2024,02,26,00,54,981.88
2024,02,26,00,55,981.88
2024,02,26,00,56,981.88
2024,02,26,00,57,981.88
2024,02,26,00,58,982.15
2024,02,26,00,59,986.93
2024,02,26,01,00,986.93
2024,02,26,01,01,986.93
2024,02,26,01,02,986.93
2024,02,26,01,03,986.93
2024,02,26,01,04,986.93
2024,02,26,01,05,986.93
2024,02,26,01,06,986.93
2024,02,26,01,07,986.93
2024,02,26,01,08,986.93
2024,02,26,01,09,986.93
2024,02,26,01,10,986.93
2024,02,26,01,11,986.93
2024,02,26,01,12,986.93
2024,02,26,01,13,986.93
2024,02,26,01,14,986.93
2024,02,26,01,15,986.93
2024,02,26,01,16,986.48
2024,02,26,01,17,978.02
2024,02,26,01,18,978.02
2024,02,26,01,19,978.02
2024,02,26,01,20,978.02
2024,02,26,01,21,978.02
2024,02,26,01,22,978.02
2024,02,26,01,23,978.02
2024,02,26,01,24,978.02
2024,02,26,01,25,978.02
2024,02,26,01,26,978.02
2024,02,26,01,27,978.02
2024,02,26,01,28,978.02
2024,02,26,01,29,978.02
2024,02,26,01,30,978.02
2024,02,26,01,31,978.02
2024,02,26,01,32,978.02
2024,02,26,01,33,978.02
2024,02,26,01,34,978.02
2024,02,26,01,35,978.02
2024,02,26,01,36,978.18
2024,02,26,01,37,981.24
2024,02,26,01,38,981.24
2024,02,26,01,39,981.24
2024,02,26,01,40,981.35
2024,02,26,01,41,983.47
2024,02,26,01,42,983.24
2024,02,26,01,43,982.59
2024,02,26,01,44,982.59
2024,02,26,01,45,982.59
2024,02,26,01,46,982.26
2024,02,26,01,47,976.26
2024,02,26,01,48,976.26
2024,02,26,01,49,976.26
2024,02,26,01,50,976.26
2024,02,26,01,51,976.26
2024,02,26,01,52,976.42
2024,02,26,01,53,979.51
2024,02,26,01,54,979.46
2024,02,26,01,55,979.61
2024,02,26,01,56,979.61
2024,02,26,01,57,979.61
2024,02,26,01,58,979.56
2024,02,26,01,59,978.67
2024,02,26,02,00,978.67
2024,02,26,02,01,978.67
2024,02,26,02,02,978.67
2024,02,26,02,03,978.77
2024,02,26,02,04,980.73
2024,02,26,02,05,980.73
2024,02,26,02,06,980.73
2024,02,26,02,07,980.75
2024,02,26,02,08,981.21
2024,02,26,02,09,981.21
2024,02,26,02,10,981.21
2024,02,26,02,11,981.21
2024,02,26,02,12,981.21
2024,02,26,02,13,981.21
2024,02,26,02,14,981.21
2024,02,26,02,15,981.21
2024,02,26,02,16,981.21
2024,02,26,02,17,981.21
2024,02,26,02,18,981.21
2024,02,26,02,19,981.21
2024,02,26,02,20,981.21
2024,02,26,02,21,981.21
2024,02,26,02,22,981.21
2024,02,26,02,23,981.21
2024,02,26,02,24,981.21
2024,02,26,02,25,981.21
2024,02,26,02,26,981.21
2024,02,26,02,27,981.04
2024,02,26,02,28,977.75
2024,02,26,02,29,977.75
2024,02,26,02,30,977.75
2024,02,26,02,31,977.75
2024,02,26,02,32,977.72
2024,02,26,02,33,977.72
2024,02,26,02,34,977.72
2024,02,26,02,35,977.72
2024,02,26,02,36,977.72
2024,02,26,02,37,977.89
2024,02,26,02,38,981.14
2024,02,26,02,39,981.14
2024,02,26,02,40,981.14
2024,02,26,02,41,981.14
2024,02,26,02,42,981.20
2024,02,26,02,43,982.36
2024,02,26,02,44,982.36
2024,02,26,02,45,982.21
2024,02,26,02,46,979.28
2024,02,26,02,47,979.28
2024,02,26,02,48,979.28
2024,02,26,02,49,979.28
2024,02,26,02,50,979.28
2024,02,26,02,51,979.28
2024,02,26,02,52,979.28
2024,02,26,02,53,979.28
2024,02,26,02,54,979.37
2024,02,26,02,55,981.04
2024,02,26,02,56,981.04
2024,02,26,02,57,981.04
2024,02,26,02,58,981.04
2024,02,26,02,59,981.04
2024,02,26,03,00,981.04
2024,02,26,03,01,981.04
2024,02,26,03,02,980.96
2024,02,26,03,03,979.48
2024,02,26,03,04,979.48
2024,02,26,03,05,979.48
2024,02,26,03,06,979.48
2024,02,26,03,07,979.48
2024,02,26,03,08,979.48
2024,02,26,03,09,979.48
2024,02,26,03,10,979.48
2024,02,26,03,11,979.48
2024,02,26,03,12,979.48
2024,02,26,03,13,979.48
2024,02,26,03,14,979.70
2024,02,26,03,15,983.68
2024,02,26,03,16,983.59
2024,02,26,03,17,981.92
2024,02,26,03,18,981.92
2024,02,26,03,19,981.92
2024,02,26,03,20,981.92
2024,02,26,03,21,981.92
2024,02,26,03,22,981.92
2024,02,26,03,23,981.92
2024,02,26,03,24,981.83
2024,02,26,03,25,980.09
2024,02,26,03,26,980.09
2024,02,26,03,27,980.09
2024,02,26,03,28,980.09
2024,02,26,03,29,980.09
2024,02,26,03,30,980.09
2024,02,26,03,31,980.09
2024,02,26,03,32,980.09
2024,02,26,03,33,980.09
2024,02,26,03,34,980.09
2024,02,26,03,35,980.16
2024,02,26,03,36,981.58
2024,02,26,03,37,981.58
2024,02,26,03,38,981.58
2024,02,26,03,39,981.58
2024,02,26,03,40,981.58
2024,02,26,03,41,981.91
2024,02,26,03,42,988.25
2024,02,26,03,43,988.25
2024,02,26,03,44,988.25
2024,02,26,03,45,988.25
2024,02,26,03,46,987.97
2024,02,26,03,47,982.66
2024,02,26,03,48,982.66
2024,02,26,03,49,982.66
2024,02,26,03,50,982.66
2024,02,26,03,51,982.66
2024,02,26,03,52,982.66
2024,02,26,03,53,982.66
2024,02,26,03,54,982.66
2024,02,26,03,55,982.66
2024,02,26,03,56,982.84
2024,02,26,03,57,986.35
2024,02,26,03,58,985.91
2024,02,26,03,59,977.65
2024,02,26,04,00,977.65
2024,02,26,04,01,977.65
2024,02,26,04,02,977.65
2024,02,26,04,03,977.65
2024,02,26,04,04,977.65
2024,02,26,04,05,977.65
2024,02,26,04,06,977.65
2024,02,26,04,07,977.65
2024,02,26,04,08,977.65
2024,02,26,04,09,977.65
2024,02,26,04,10,977.65
2024,02,26,04,11,977.65
2024,02,26,04,12,977.65
2024,02,26,04,13,977.65
2024,02,26,04,14,977.65
2024,02,26,04,15,977.65
2024,02,26,04,16,977.65
2024,02,26,04,17,977.65
2024,02,26,04,18,977.65
2024,02,26,04,19,977.65
2024,02,26,04,20,977.68
2024,02,26,04,21,978.33
2024,02,26,04,22,978.33
2024,02,26,04,23,978.33
2024,02,26,04,24,978.33
2024,02,26,04,25,978.33
2024,02,26,04,26,978.33
2024,02,26,04,27,978.33
2024,02,26,04,28,978.33
2024,02,26,04,29,978.33
2024,02,26,04,30,978.33
2024,02,26,04,31,978.33
2024,02,26,04,32,978.46
2024,02,26,04,33,980.83
2024,02,26,04,34,980.83
2024,02,26,04,35,980.83
2024,02,26,04,36,980.83
2024,02,26,04,37,980.83
2024,02,26,04,38,980.83
2024,02,26,04,39,980.83
2024,02,26,04,40,980.83
2024,02,26,04,41,980.83
2024,02,26,04,42,980.83
2024,02,26,04,43,980.83
2024,02,26,04,44,981.21
2024,02,26,04,45,988.45
2024,02,26,04,46,988.45
2024,02,26,04,47,988.45
2024,02,26,04,48,988.45
2024,02,26,04,49,988.45
2024,02,26,04,50,988.45
2024,02,26,04,51,988.45
2024,02,26,04,52,988.45
2024,02,26,04,53,988.45
2024,02,26,04,54,988.45
2024,02,26,04,55,988.45
2024,02,26,04,56,988.45
2024,02,26,04,57,988.45
2024,02,26,04,58,988.45
2024,02,26,04,59,988.45
2024,02,26,05,00,988.45
2024,02,26,05,01,988.45
2024,02,26,05,02,988.45
2024,02,26,05,03,988.45
2024,02,26,05,04,988.45
2024,02,26,05,05,988.45
2024,02,26,05,06,988.45
2024,02,26,05,07,988.45
2024,02,26,05,08,988.45
2024,02,26,05,09,988.45
2024,02,26,05,10,988.45
2024,02,26,05,11,988.45
2024,02,26,05,12,988.45
2024,02,26,05,13,988.45
2024,02,26,05,14,988.45
2024,02,26,05,15,988.45
2024,02,26,05,16,987.71
2024,02,26,05,17,987.71
2024,02,26,05,18,987.71
2024,02,26,05,19,987.71
2024,02,26,05,20,987.71
2024,02,26,05,21,987.71
2024,02,26,05,22,987.71
2024,02,26,05,23,987.71
2024,02,26,05,24,987.71
2024,02,26,05,25,987.71
2024,02,26,05,26,987.71
2024,02,26,05,27,979.17
2024,02,26,05,28,979.17
2024,02,26,05,29,979.17
2024,02,26,05,30,979.17
2024,02,26,05,31,984.53
2024,02,26,05,32,984.53
2024,02,26,05,33,984.53
2024,02,26,05,34,984.53
2024,02,26,05,35,984.53
2024,02,26,05,36,984.68
2024,02,26,05,37,987.51
2024,02,26,05,38,987.51
2024,02,26,05,39,987.51
2024,02,26,05,40,987.51
2024,02,26,05,41,987.36
2024,02,26,05,42,984.42
2024,02,26,05,43,984.54
2024,02,26,05,44,986.93
2024,02,26,05,45,986.93
2024,02,26,05,46,986.93
2024,02,26,05,47,986.93
2024,02,26,05,48,986.84
2024,02,26,05,49,985.17
2024,02,26,05,50,985.60
2024,02,26,05,51,986.22
2024,02,26,05,52,986.22
2024,02,26,05,53,986.22
2024,02,26,05,54,986.22
2024,02,26,05,55,986.22
2024,02,26,05,56,986.22
2024,02,26,05,57,986.22
2024,02,26,05,58,986.22
2024,02,26,05,59,986.22
2024,02,26,06,00,986.22
2024,02,26,06,01,986.22
2024,02,26,06,02,986.22
2024,02,26,06,03,986.22
2024,02,26,06,04,986.22
2024,02,26,06,05,986.22
2024,02,26,06,06,986.22
2024,02,26,06,07,986.22
2024,02,26,06,08,986.22
2024,02,26,06,09,986.22
2024,02,26,06,10,986.22
2024,02,26,06,11,986.16
2024,02,26,06,12,985.07
2024,02,26,06,13,985.07
2024,02,26,06,14,985.07
2024,02,26,06,15,985.07
2024,02,26,06,16,985.07
2024,02,26,06,17,985.07
2024,02,26,06,18,985.07
2024,02,26,06,19,975.18
2024,02,26,06,20,975.18
2024,02,26,06,21,975.44
2024,02,26,06,22,982.73
2024,02,26,06,23,982.73
2024,02,26,06,24,982.73
2024,02,26,06,25,982.73
2024,02,26,06,26,982.73
2024,02,26,06,27,982.73
2024,02,26,06,28,982.73
2024,02,26,06,29,982.73
2024,02,26,06,30,982.73
2024,02,26,06,31,982.73
2024,02,26,06,32,982.73
2024,02,26,06,33,982.73
2024,02,26,06,34,978.80
2024,02,26,06,35,978.80
2024,02,26,06,36,978.80
2024,02,26,06,37,978.80
2024,02,26,06,38,978.93
2024,02,26,06,39,982.53
2024,02,26,06,40,982.53
2024,02,26,06,41,981.41
2024,02,26,06,42,981.41
2024,02,26,06,43,981.41
2024,02,26,06,44,981.41
2024,02,26,06,45,981.41
2024,02,26,06,46,981.41
2024,02,26,06,47,981.41
2024,02,26,06,48,981.41
2024,02,26,06,49,981.41
2024,02,26,06,50,981.41
2024,02,26,06,51,985.10
2024,02,26,06,52,985.10
2024,02,26,06,53,985.32
2024,02,26,06,54,989.50
2024,02,26,06,55,989.50
2024,02,26,06,56,985.71
2024,02,26,06,57,985.47
2024,02,26,06,58,985.47
2024,02,26,06,59,985.47
2024,02,26,07,00,985.47
2024,02,26,07,01,985.60
2024,02,26,07,02,988.05
2024,02,26,07,03,988.18
2024,02,26,07,04,988.18
2024,02,26,07,05,988.15
2024,02,26,07,06,987.57
2024,02,26,07,07,987.57
2024,02,26,07,08,987.57
2024,02,26,07,09,987.57
2024,02,26,07,10,987.57
2024,02,26,07,11,985.13
2024,02,26,07,12,985.13
2024,02,26,07,13,985.19
2024,02,26,07,14,986.35
2024,02,26,07,15,986.35
2024,02,26,07,16,985.24
2024,02,26,07,17,985.24
2024,02,26,07,18,985.24
2024,02,26,07,19,985.24
2024,02,26,07,20,985.24
2024,02,26,07,21,989.10
2024,02,26,07,22,989.10
2024,02,26,07,23,989.10
2024,02,26,07,24,989.10
2024,02,26,07,25,989.10
2024,02,26,07,26,989.10
2024,02,26,07,27,989.10
2024,02,26,07,28,989.10
2024,02,26,07,29,989.10
2024,02,26,07,30,989.10
2024,02,26,07,31,989.10
2024,02,26,07,32,989.10
2024,02,26,07,33,989.10
2024,02,26,07,34,989.10
2024,02,26,07,35,989.10
2024,02,26,07,36,989.10
2024,02,26,07,37,989.10
2024,02,26,07,38,989.10
2024,02,26,07,39,989.10
2024,02,26,07,40,989.10
2024,02,26,07,41,982.36
2024,02,26,07,42,982.36
2024,02,26,07,43,982.36
2024,02,26,07,44,982.04
2024,02,26,07,45,976.03
2024,02,26,07,46,976.03
2024,02,26,07,47,976.03
2024,02,26,07,48,976.03
2024,02,26,07,49,976.03
2024,02,26,07,50,976.03
2024,02,26,07,51,976.03
2024,02,26,07,52,976.03
2024,02,26,07,53,976.03
2024,02,26,07,54,976.03
2024,02,26,07,55,976.03
2024,02,26,07,56,976.03
2024,02,26,07,57,976.03
2024,02,26,07,58,976.03
2024,02,26,07,59,971.79
2024,02,26,08,00,971.79
2024,02,26,08,01,971.79
2024,02,26,08,02,971.79
2024,02,26,08,03,971.79
2024,02,26,08,04,971.79
2024,02,26,08,05,971.79
2024,02,26,08,06,971.79
2024,02,26,08,07,971.79
2024,02,26,08,08,971.79
2024,02,26,08,09,971.79
2024,02,26,08,10,971.79
2024,02,26,08,11,971.79
2024,02,26,08,12,971.79
2024,02,26,08,13,971.79
2024,02,26,08,14,971.79
2024,02,26,08,15,971.79
2024,02,26,08,16,971.79
2024,02,26,08,17,971.79
2024,02,26,08,18,971.79
2024,02,26,08,19,971.79
2024,02,26,08,20,971.79
2024,02,26,08,21,971.79
2024,02,26,08,22,971.79
2024,02,26,08,23,969.48
2024,02,26,08,24,923.33
2024,02,26,08,25,923.33
2024,02,26,08,26,923.33
2024,02,26,08,27,923.33
2024,02,26,08,28,923.33
2024,02,26,08,29,923.33
2024,02,26,11,46,1058.59
2024,02,26,11,47,1058.59
2024,02,26,11,48,1058.59
2024,02,26,11,49,1058.59
2024,02,26,11,50,1058.59
2024,02,26,11,51,1058.59
2024,02,26,11,52,1058.59
2024,02,26,11,53,1058.59
2024,02,26,11,54,1058.59
2024,02,26,11,55,1058.59
2024,02,26,11,56,1058.59
2024,02,26,11,57,1058.59
2024,02,26,11,58,1058.59
2024,02,26,11,59,1058.59
2024,02,26,12,00,1058.59
2024,02,26,12,01,1058.59
2024,02,26,12,02,1058.59
2024,02,26,12,03,1058.59
2024,02,26,12,04,1058.59
2024,02,26,12,05,1058.59
2024,02,26,12,06,1058.59
2024,02,26,12,07,1058.59
2024,02,26,12,08,1058.59
2024,02,26,12,09,1058.59
2024,02,26,12,10,1058.59
2024,02,26,12,11,1058.59
2024,02,26,12,12,1058.59
2024,02,26,12,13,1058.59
2024,02,26,12,14,1058.59
2024,02,26,12,15,1058.59
2024,02,26,12,16,1058.59
2024,02,26,12,17,1058.59
2024,02,26,12,18,1058.59
2024,02,26,12,19,1058.59
2024,02,26,12,20,1058.59
2024,02,26,12,21,1058.59
2024,02,26,12,22,1058.59
2024,02,26,12,23,1058.59
2024,02,26,12,24,1058.59
2024,02,26,12,25,1058.59
2024,02,26,12,26,1058.59
2024,02,26,12,27,1058.59
2024,02,26,12,28,1058.59
2024,02,26,12,29,1058.59
2024,02,26,12,30,1058.59
2024,02,26,12,31,1058.59
2024,02,26,12,32,1058.59
2024,02,26,12,33,1058.59
2024,02,26,12,34,1058.59
2024,02,26,12,35,1058.59
2024,02,26,12,36,1058.59
2024,02,26,12,37,1058.59
2024,02,26,12,38,1058.59
2024,02,26,12,39,1058.59
2024,02,26,12,40,1058.59
2024,02,26,12,41,1058.59
2024,02,26,12,42,1058.59
2024,02,26,12,43,1058.59
2024,02,26,12,44,1058.59
2024,02,26,12,45,1058.59
2024,02,26,12,46,1058.59
2024,02,26,12,47,1058.59
2024,02,26,12,48,1058.59
2024,02,26,12,49,1058.59
2024,02,26,12,50,1058.59
2024,02,26,12,51,1058.59
2024,02,26,12,52,1058.59
2024,02,26,12,53,1058.59
2024,02,26,12,54,1058.59
2024,02,26,12,55,1058.59
2024,02,26,12,56,1058.59
2024,02,26,12,57,1058.59
2024,02,26,12,58,1058.59
2024,02,26,12,59,1058.59
2024,02,26,13,00,1058.59
2024,02,26,13,01,1058.59
2024,02,26,13,02,1058.59
2024,02,26,13,03,1058.59
2024,02,26,13,04,1058.59
2024,02,26,13,05,1058.59
2024,02,26,13,06,1058.59
2024,02,26,13,07,1058.59
2024,02,26,13,08,1058.59
2024,02,26,13,09,1058.59
2024,02,26,13,10,1058.59
2024,02,26,13,11,1058.59
2024,02,26,13,12,1058.59
2024,02,26,13,13,1058.59
2024,02,26,13,14,1058.59
2024,02,26,13,15,1058.59
2024,02,26,13,16,1058.59
2024,02,26,13,17,1058.59
2024,02,26,13,18,1058.59
2024,02,26,13,19,1058.59
2024,02,26,13,20,1058.59
2024,02,26,13,21,1058.59
2024,02,26,13,22,1058.59
2024,02,26,13,23,1058.59
2024,02,26,13,24,1058.59
2024,02,26,13,25,1058.59
2024,02,26,13,26,1058.59
2024,02,26,13,27,1058.59
2024,02,26,13,28,1058.59
2024,02,26,13,29,1058.59
2024,02,26,13,30,1058.59
2024,02,26,13,31,1058.59
2024,02,26,13,32,1058.59
2024,02,26,13,33,1058.59
2024,02,26,13,34,1058.59
2024,02,26,13,35,1058.59
2024,02,26,13,36,1058.59
2024,02,26,13,37,1058.59
2024,02,26,13,38,1058.59
2024,02,26,13,39,1058.59
2024,02,26,13,40,1058.59
2024,02,26,13,41,1058.59
2024,02,26,13,42,1058.59
2024,02,26,13,43,1058.59
2024,02,26,13,44,1058.59
2024,02,26,13,45,1058.59
2024,02,26,13,46,1058.59
2024,02,26,13,47,1058.59
2024,02,26,13,48,1058.59
2024,02,26,13,49,1058.59
2024,02,26,13,50,1058.59
2024,02,26,13,51,1058.59
2024,02,26,13,52,1058.59
2024,02,26,13,53,1058.59
2024,02,26,13,54,1058.59
2024,02,26,14,17,964.95
2024,02,26,14,18,965.05
2024,02,26,14,19,964.68
2024,02,26,14,20,964.51
2024,02,26,14,21,964.51
2024,02,26,14,22,964.51
2024,02,26,14,23,964.51
2024,02,26,14,24,964.51
2024,02,26,14,25,963.90
2024,02,26,14,26,964.04
2024,02,26,14,27,963.83
2024,02,26,14,28,964.14
2024,02,26,14,29,964.14
2024,02,26,14,30,964.14
2024,02,26,14,31,964.14
2024,02,26,14,32,964.14
2024,02,26,14,33,964.51
2024,02,26,14,34,964.78
2024,02,26,14,35,964.78
2024,02,26,14,36,964.78
2024,02,26,14,37,964.78
2024,02,26,14,38,964.31
2024,02,26,14,39,963.85
2024,02,26,14,40,963.83
2024,02,26,14,41,963.83
2024,02,26,14,42,963.83
2024,02,26,14,43,963.83
2024,02,26,14,44,963.83
2024,02,26,14,45,963.83
2024,02,26,14,46,963.83
2024,02,26,14,47,963.83
2024,02,26,14,48,963.83
2024,02,26,14,49,963.83
2024,02,26,14,50,963.83
2024,02,26,14,51,963.83
2024,02,26,14,52,963.83
2024,02,26,14,53,963.83
2024,02,26,14,54,963.83
2024,02,26,14,55,963.83
2024,02,26,14,56,963.83
2024,02,26,14,57,963.83
2024,02,26,14,58,963.83
2024,02,26,14,59,963.83
2024,02,26,15,00,963.83
2024,02,26,15,01,963.83
2024,02,26,15,02,963.83
2024,02,26,15,03,963.83
2024,02,26,15,04,963.83
2024,02,26,15,05,963.83
2024,02,26,15,06,963.83
2024,02,26,15,07,963.83
2024,02,26,15,08,963.83
2024,02,26,15,09,963.83
2024,02,26,15,10,963.83
2024,02,26,15,11,963.83
2024,02,26,15,12,963.83
2024,02,26,15,13,963.83
2024,02,26,15,14,963.83
2024,02,26,15,15,963.83
2024,02,26,15,16,963.83
2024,02,26,15,17,963.83
2024,02,26,15,18,963.83
2024,02,26,15,19,963.83
2024,02,26,15,20,963.83
2024,02,26,15,21,963.83
2024,02,26,15,22,963.83
2024,02,26,15,23,963.83
2024,02,26,15,24,963.83
2024,02,26,15,25,963.83
2024,02,26,15,26,963.83
2024,02,26,15,27,963.83
2024,02,26,15,28,963.83
2024,02,26,15,29,963.83
2024,02,26,15,30,963.83
2024,02,26,15,31,963.83
2024,02,26,15,32,963.83
2024,02,26,15,33,963.83
2024,02,26,15,34,963.83
2024,02,26,15,35,963.83
2024,02,26,15,36,963.83
2024,02,26,15,37,963.83
2024,02,26,15,38,963.83
2024,02,26,15,39,963.83
2024,02,26,15,40,963.83
2024,02,26,15,41,963.83
2024,02,26,15,42,963.83
2024,02,26,15,43,963.83
2024,02,26,15,44,963.83
2024,02,26,15,45,963.83
2024,02,26,15,46,963.83
2024,02,26,15,47,963.83
2024,02,26,15,48,963.83
2024,02,26,15,49,963.83
2024,02,26,15,50,963.83
2024,02,26,15,51,963.83
2024,02,26,15,52,963.83
2024,02,26,15,53,963.83
2024,02,26,15,54,963.83
2024,02,26,15,55,963.83
2024,02,26,15,56,963.83
2024,02,26,15,57,963.83
2024,02,26,15,58,963.83
2024,02,26,15,59,963.83
2024,02,26,16,00,963.83
2024,02,26,16,01,963.83
2024,02,26,16,02,963.83
2024,02,26,16,03,963.83
2024,02,26,16,04,963.83
2024,02,26,16,05,963.83
2024,02,26,16,06,963.83
2024,02,26,16,07,963.83
2024,02,26,16,08,963.83
2024,02,26,16,09,963.83
2024,02,26,16,10,963.83
2024,02,26,16,11,963.83
2024,02,26,16,12,963.83
2024,02,26,16,13,963.83
2024,02,26,16,14,963.83
2024,02,26,16,15,963.83
2024,02,26,16,16,963.83
2024,02,26,16,17,963.83
2024,02,26,16,18,963.83
2024,02,26,16,19,963.83
2024,02,26,16,20,963.83
2024,02,26,16,21,963.83
2024,02,26,16,22,963.83
2024,02,26,16,23,963.83
2024,02,26,16,24,963.83
2024,02,26,16,25,963.83
2024,02,26,16,26,963.83
2024,02,26,16,27,963.83
2024,02,26,16,28,963.83
2024,02,26,16,29,963.83
2024,02,26,16,30,963.83
2024,02,26,16,31,963.83
2024,02,26,16,32,963.83
2024,02,26,16,33,963.83
2024,02,26,16,34,963.83
2024,02,26,16,35,963.83
2024,02,26,16,36,963.83
2024,02,26,16,37,963.83
2024,02,26,16,38,963.83
2024,02,26,16,39,963.83
2024,02,26,16,40,963.83
2024,02,26,16,41,963.83
2024,02,26,16,42,963.83
2024,02,26,16,43,963.83
2024,02,26,16,44,963.83
2024,02,26,16,45,963.83
2024,02,26,16,46,963.83
2024,02,26,16,47,963.83
2024,02,26,16,48,963.83
2024,02,26,16,49,963.83
2024,02,26,16,50,963.83
2024,02,26,16,51,963.83
2024,02,26,16,52,963.83
2024,02,26,16,53,963.83
2024,02,26,16,54,963.83
2024,02,26,16,55,963.83
2024,02,26,16,56,963.83
2024,02,26,16,57,963.83
2024,02,26,16,58,963.83
2024,02,26,16,59,963.83
2024,02,26,17,00,963.83
2024,02,26,17,01,963.83
2024,02,26,17,02,963.83
2024,02,26,17,03,963.83
2024,02,26,17,04,963.83
2024,02,26,17,05,963.83
2024,02,26,17,06,963.83
2024,02,26,17,07,963.83
2024,02,26,17,08,963.83
2024,02,26,17,09,963.83
2024,02,26,17,10,963.83
2024,02,26,17,11,963.83
2024,02,26,17,12,963.83
2024,02,26,17,13,963.83
2024,02,26,17,14,963.83
2024,02,26,17,15,963.83
2024,02,26,17,16,963.83
2024,02,26,17,17,963.83
2024,02,26,17,18,963.83
2024,02,26,17,19,963.83
2024,02,26,17,20,963.83
2024,02,26,17,21,963.83
2024,02,26,17,22,963.83
2024,02,26,17,23,963.83
2024,02,26,17,24,963.83
2024,02,26,17,25,963.83
2024,02,26,17,26,963.83
2024,02,26,17,27,963.83
2024,02,26,17,28,963.83
2024,02,26,17,29,963.83
2024,02,26,17,30,963.83
2024,02,26,17,31,963.83
2024,02,26,17,32,963.83
2024,02,26,17,33,963.83
2024,02,26,17,34,963.83
2024,02,26,17,35,963.83
2024,02,26,17,36,963.83
2024,02,26,17,37,963.83
2024,02,26,17,38,963.83
2024,02,26,17,39,963.83
2024,02,26,17,40,963.83
2024,02,26,17,41,963.83
2024,02,26,17,42,963.83
2024,02,26,17,43,963.83
2024,02,26,17,44,963.83
2024,02,26,17,45,963.83
2024,02,26,17,46,963.83
2024,02,26,17,47,963.83
2024,02,26,17,48,963.83
2024,02,26,17,49,963.83
2024,02,26,17,50,963.83
2024,02,26,17,51,963.83
2024,02,26,17,52,963.83
2024,02,26,17,53,963.83
2024,02,26,17,54,963.83
2024,02,26,17,55,963.83
2024,02,26,17,56,963.83
2024,02,26,17,57,963.83
2024,02,26,17,58,963.83
2024,02,26,17,59,963.83
2024,02,26,18,00,963.83
2024,02,26,18,01,963.83
2024,02,26,18,02,963.83
2024,02,26,18,03,963.83
2024,02,26,18,04,963.83
2024,02,26,18,05,963.83
2024,02,26,18,06,963.83
2024,02,26,18,07,963.83
2024,02,26,18,08,963.83
2024,02,26,18,09,963.83
2024,02,26,18,10,963.83
2024,02,26,18,11,963.83
2024,02,26,18,12,963.83
2024,02,26,18,13,963.83
2024,02,26,18,14,963.83
2024,02,26,18,15,963.83
2024,02,26,18,16,963.83
2024,02,26,18,17,963.83
2024,02,26,18,18,963.83
2024,02,26,18,19,963.83
2024,02,26,18,20,963.83
2024,02,26,18,21,963.83
2024,02,26,18,22,963.83
2024,02,26,18,23,963.83
2024,02,26,18,24,963.83
2024,02,26,18,25,963.83
2024,02,26,18,26,963.83
2024,02,26,18,27,963.83
2024,02,26,18,28,963.83
2024,02,26,18,29,963.83
2024,02,26,18,30,963.83
2024,02,26,18,31,963.83
2024,02,26,18,32,963.83
2024,02,26,18,33,963.83
2024,02,26,18,34,963.83
2024,02,26,18,35,963.83
2024,02,26,18,36,963.83
2024,02,26,18,37,963.83
2024,02,26,18,38,963.83
2024,02,26,18,39,963.83
2024,02,26,18,40,963.83
2024,02,26,18,41,963.83
2024,02,26,18,42,963.83
2024,02,26,18,43,963.83
2024,02,26,18,44,963.83
2024,02,26,18,45,963.83
2024,02,26,18,46,963.83
2024,02,26,18,47,963.83
2024,02,26,18,48,963.83
2024,02,26,18,49,963.83
2024,02,26,18,50,963.83
2024,02,26,18,51,963.83
2024,02,26,18,52,963.83
2024,02,26,18,53,963.83
2024,02,26,18,54,963.83
2024,02,26,18,55,963.83
2024,02,26,18,56,963.83
2024,02,26,18,57,963.83
2024,02,26,18,58,963.83
2024,02,26,18,59,963.83
2024,02,26,19,00,963.83
2024,02,26,19,01,963.83
2024,02,26,19,02,963.83
2024,02,26,19,03,963.83
2024,02,26,19,04,963.83
2024,02,26,19,05,963.83
2024,02,26,19,06,963.83
2024,02,26,19,07,963.83
2024,02,26,19,08,963.83
2024,02,26,19,09,963.83
2024,02,26,19,10,963.83
2024,02,26,19,11,963.83
2024,02,26,19,12,963.83
2024,02,26,19,13,963.83
2024,02,26,19,14,963.83
2024,02,26,19,15,963.83
2024,02,26,23,42,902.81
2024,02,26,23,43,902.81
2024,02,26,23,44,902.81
2024,02,26,23,45,902.81
2024,02,26,23,46,927.22
2024,02,26,23,47,928.51
2024,02,26,23,48,928.51
2024,02,26,23,49,928.51
2024,02,26,23,50,925.53
2024,02,26,23,51,925.53
2024,02,26,23,52,925.53
2024,02,26,23,53,925.53
2024,02,26,23,54,925.53
2024,02,26,23,55,925.53
2024,02,26,23,56,925.53
